GW3270 Weather Reports


Display with metric or nautical units.
time (UTC)temp
F
wind
direction
speed
MPH
gust
MPH
rain 1hr
in
rain 24hr
in
rain mn
in
humidity
%
barometer
mb
20260504002404 54 207 1.0 2.0 0.00 0.00 0.00 53 1019.7
20260504001901 54 218 1.0 1.0 0.00 0.00 0.00 52 1020.2
20260504001359 55 229 0.0 0.0 0.00 0.00 0.00 53 1019.9
20260504000855 55 246 0.0 1.0 0.00 0.00 0.00 51 1020.2
20260504000354 55 247 1.0 2.0 0.00 0.00 0.00 49 1020.0
20260503235849 56 238 1.0 2.0 0.00 0.00 0.00 48 1020.3
20260503235347 56 241 0.0 2.0 0.00 0.00 0.00 47 1020.2
20260503234844 57 222 0.0 1.0 0.00 0.00 0.00 47 1020.2
20260503234342 57 230 1.0 2.0 0.00 0.00 0.00 46 1020.2
20260503233839 58 245 2.0 2.0 0.00 0.00 0.00 45 1020.3
20260503233335 58 29 0.0 2.0 0.00 0.00 0.00 43 1019.9
20260503232826 58 217 2.0 2.0 0.00 0.00 0.00 41 1019.8
20260503232324 58 178 0.0 2.0 0.00 0.00 0.00 43 1020.0
20260503231822 59 199 0.0 3.0 0.00 0.00 0.00 43 1019.8
20260503231318 59 264 1.0 2.0 0.00 0.00 0.00 40 1020.2
20260503230814 59 265 2.0 2.0 0.00 0.00 0.00 43 1019.9
20260503230311 60 283 2.0 2.0 0.00 0.00 0.00 41 1020.0
20260503225809 60 160 1.0 2.0 0.00 0.00 0.00 38 1020.5
20260503225305 60 305 2.0 4.0 0.00 0.00 0.00 38 1020.5
20260503224801 61 283 0.0 1.0 0.00 0.00 0.00 39 1020.5
20260503224259 61 280 1.0 3.0 0.00 0.00 0.00 39 1020.7
20260503223756 61 333 1.0 3.0 0.00 0.00 0.00 39 1020.7
20260503223254 62 185 0.0 3.0 0.00 0.00 0.00 40 1020.6
20260503222749 61 278 1.0 3.0 0.00 0.00 0.00 41 1020.6
20260503222248 61 19 0.0 2.0 0.00 0.00 0.00 42 1020.6
20260503221746 61 236 3.0 6.0 0.00 0.00 0.00 42 1020.7
20260503221243 61 46 3.0 3.0 0.00 0.00 0.00 42 1020.8
20260503220740 61 290 2.0 4.0 0.00 0.00 0.00 42 1020.8
20260503220237 61 25 0.0 6.0 0.00 0.00 0.00 40 1020.8
20260503215733 62 213 2.0 4.0 0.00 0.00 0.00 39 1020.9
20260503215230 62 148 2.0 2.0 0.00 0.00 0.00 40 1020.9
20260503214729 62 319 0.0 5.0 0.00 0.00 0.00 41 1021.1
20260503214225 64 236 4.0 5.0 0.00 0.00 0.00 37 1020.9
20260503213723 65 249 2.0 4.0 0.00 0.00 0.00 37 1021.0
20260503213220 65 334 0.0 4.0 0.00 0.00 0.00 37 1021.2
20260503212717 64 300 2.0 5.0 0.00 0.00 0.00 37 1021.3
20260503212215 64 233 3.0 3.0 0.00 0.00 0.00 37 1021.3
20260503211712 64 306 2.0 4.0 0.00 0.00 0.00 39 1021.3
20260503211208 64 201 3.0 4.0 0.00 0.00 0.00 37 1021.2
20260503210704 64 252 2.0 4.0 0.00 0.00 0.00 38 1021.2
20260503210201 63 256 1.0 4.0 0.00 0.00 0.00 38 1021.5
20260503205656 63 233 2.0 4.0 0.00 0.00 0.00 38 1021.6
20260503205153 63 63 4.0 4.0 0.00 0.00 0.00 38 1021.3
20260503204649 63 53 1.0 5.0 0.00 0.00 0.00 38 1021.5
20260503204147 63 167 3.0 4.0 0.00 0.00 0.00 39 1021.7
20260503203644 63 201 2.0 6.0 0.00 0.00 0.00 36 1021.8
20260503203142 64 149 3.0 5.0 0.00 0.00 0.00 36 1022.2
20260503202638 63 263 3.0 4.0 0.00 0.00 0.00 39 1021.7
20260503202137 63 320 1.0 4.0 0.00 0.00 0.00 39 1021.8
20260503201634 63 295 3.0 4.0 0.00 0.00 0.00 41 1022.2
20260503201131 64 75 1.0 4.0 0.00 0.00 0.00 37 1021.8
20260503200622 65 19 0.0 2.0 0.00 0.00 0.00 37 1022.1
20260503200118 64 298 0.0 4.0 0.00 0.00 0.00 36 1022.1
20260503195616 63 281 2.0 4.0 0.00 0.00 0.00 37 1022.3
20260503195112 63 277 2.0 3.0 0.00 0.00 0.00 38 1022.5
20260503194609 63 8 1.0 4.0 0.00 0.00 0.00 39 1022.5
20260503194104 63 263 3.0 4.0 0.00 0.00 0.00 37 1022.9
20260503193601 62 305 2.0 5.0 0.00 0.00 0.00 36 1022.6
20260503193056 62 147 3.0 4.0 0.00 0.00 0.00 38 1022.6
20260503192553 62 85 3.0 4.0 0.00 0.00 0.00 41 1022.6
20260503192048 62 150 3.0 3.0 0.00 0.00 0.00 40 1022.7
20260503191540 61 219 3.0 6.0 0.00 0.00 0.00 40 1022.7
20260503191037 62 97 3.0 6.0 0.00 0.00 0.00 38 1022.9
20260503190533 62 313 0.0 3.0 0.00 0.00 0.00 42 1022.9
20260503190030 62 130 1.0 4.0 0.00 0.00 0.00 41 1023.0
20260503185526 62 223 2.0 5.0 0.00 0.00 0.00 41 1023.1
20260503185021 62 50 1.0 3.0 0.00 0.00 0.00 39 1023.0
20260503184518 61 180 2.0 6.0 0.00 0.00 0.00 44 1023.1
20260503184014 60 15 3.0 4.0 0.00 0.00 0.00 42 1023.2
20260503183511 60 136 2.0 6.0 0.00 0.00 0.00 45 1023.4
20260503183008 60 266 2.0 4.0 0.00 0.00 0.00 43 1023.2
20260503182507 60 199 2.0 4.0 0.00 0.00 0.00 42 1023.3
20260503182005 60 93 2.0 3.0 0.00 0.00 0.00 46 1023.5
20260503181501 60 171 2.0 4.0 0.00 0.00 0.00 46 1023.2
20260503180956 60 254 3.0 3.0 0.00 0.00 0.00 48 1023.4
20260503180455 60 218 3.0 5.0 0.00 0.00 0.00 45 1023.4
20260503175951 60 4 1.0 4.0 0.00 0.00 0.00 46 1023.5
20260503175449 60 216 1.0 3.0 0.00 0.00 0.00 46 1023.6
20260503174945 58 202 0.0 4.0 0.00 0.00 0.00 48 1023.6
20260503174443 59 10 3.0 6.0 0.00 0.00 0.00 46 1023.7
20260503173938 58 203 2.0 7.0 0.00 0.00 0.00 50 1023.6
20260503173434 59 195 2.0 4.0 0.00 0.00 0.00 52 1023.6
20260503172931 57 248 5.0 9.0 0.00 0.00 0.00 54 1024.0
20260503172429 58 291 1.0 6.0 0.00 0.00 0.00 50 1023.8
20260503171925 59 64 4.0 4.0 0.00 0.00 0.00 48 1024.0
20260503171422 58 163 2.0 4.0 0.00 0.00 0.00 48 1024.1
20260503170919 57 226 2.0 3.0 0.00 0.00 0.00 52 1024.1
20260503170415 57 156 3.0 4.0 0.00 0.00 0.00 50 1024.3
20260503150808 54 147 2.0 2.0 0.00 0.00 0.00 57 1025.0
20260503150303 53 255 3.0 3.0 0.00 0.00 0.00 54 1024.9
20260503140228 53 215 0.0 2.0 0.00 0.00 0.00 63 1024.8
20260503131158 46 160 0.0 3.0 0.00 0.00 0.00 82 1024.6
20260503130655 44 343 0.0 1.0 0.00 0.00 0.00 88 1024.7
20260503130152 44 208 2.0 3.0 0.00 0.00 0.00 90 1024.6
20260503120118 35 257 0.0 2.0 0.00 0.00 0.00 99 1024.3
20260503110539 33 106 0.0 2.0 0.00 0.00 0.00 99 1023.4
20260503090426 37 255 0.0 2.0 0.00 0.00 0.00 99 1022.6
20260503081353 36 242 0.0 2.0 0.00 0.00 0.00 98 1022.6
20260503080849 36 89 1.0 2.0 0.00 0.00 0.00 98 1022.4
20260503080347 35 111 0.0 1.0 0.00 0.00 0.00 98 1022.5
20260503072823 35 168 0.0 2.0 0.00 0.00 0.00 97 1022.4
20260503072320 36 120 0.0 2.0 0.00 0.00 0.00 98 1022.2
20260503071816 36 287 0.0 2.0 0.00 0.00 0.00 97 1022.4
20260503071314 36 181 0.0 2.0 0.00 0.00 0.00 97 1022.1
20260503070809 36 121 0.0 1.0 0.00 0.00 0.00 97 1022.3
20260503070302 36 135 0.0 2.0 0.00 0.00 0.00 97 1022.1
20260503060221 38 145 0.0 2.0 0.00 0.00 0.00 97 1022.5
20260503054708 38 114 0.0 1.0 0.00 0.00 0.00 96 1022.1
20260503054205 38 131 0.0 2.0 0.00 0.00 0.00 96 1022.4
20260503053703 38 117 0.0 2.0 0.00 0.00 0.00 97 1022.4
20260503053201 39 102 0.0 2.0 0.00 0.00 0.00 96 1022.1
20260503052657 39 147 0.0 2.0 0.00 0.00 0.00 96 1022.5
20260503052154 39 113 0.0 2.0 0.00 0.00 0.00 96 1021.9
20260503051649 39 180 0.0 2.0 0.00 0.00 0.00 96 1022.2
20260503051147 39 161 1.0 2.0 0.00 0.00 0.00 96 1021.8
20260503050643 40 124 1.0 2.0 0.00 0.00 0.00 96 1021.9
20260503050140 40 124 0.0 1.0 0.00 0.00 0.00 96 1021.9
20260503045638 40 81 0.0 3.0 0.00 0.03 0.03 96 1021.9
20260503045135 40 150 0.0 2.0 0.00 0.03 0.03 96 1021.7
20260503044631 40 214 2.0 2.0 0.00 0.03 0.03 96 1021.8
20260503044129 40 232 0.0 2.0 0.00 0.03 0.03 96 1021.8
20260503043625 40 114 1.0 3.0 0.00 0.03 0.03 96 1021.6
20260503043122 41 194 0.0 2.0 0.00 0.03 0.03 96 1021.7
20260503042619 41 165 0.0 2.0 0.00 0.03 0.03 96 1021.5
20260503042115 41 166 1.0 2.0 0.00 0.03 0.03 96 1021.7
20260503041612 41 328 2.0 2.0 0.00 0.03 0.03 96 1021.4
20260503041110 42 202 0.0 2.0 0.00 0.03 0.03 96 1021.7
20260503040607 42 235 0.0 0.0 0.00 0.03 0.03 96 1021.6
20260503040104 42 212 0.0 0.0 0.00 0.03 0.03 96 1021.6
20260503035600 42 147 0.0 2.0 0.00 0.03 0.03 96 1021.5
20260503035058 42 154 0.0 1.0 0.00 0.03 0.03 96 1021.3
20260503034555 42 149 0.0 2.0 0.00 0.03 0.03 96 1021.3
20260503034052 42 162 0.0 1.0 0.00 0.03 0.03 95 1021.5
20260503033549 43 224 0.0 1.0 0.00 0.03 0.03 96 1021.4
20260503033047 43 173 0.0 0.0 0.00 0.03 0.03 95 1021.2
20260503032545 43 128 0.0 1.0 0.00 0.03 0.03 96 1021.5
20260503032043 43 214 0.0 0.0 0.00 0.03 0.03 96 1021.5
20260503031541 43 124 0.0 1.0 0.00 0.03 0.03 96 1021.6
20260503031038 43 162 1.0 2.0 0.00 0.03 0.03 96 1021.4
20260503030533 43 237 0.0 0.0 0.00 0.03 0.03 96 1021.7
20260503030031 43 119 0.0 1.0 0.00 0.03 0.03 96 1021.6
20260503025527 43 235 0.0 1.0 0.00 0.03 0.03 95 1021.5
20260503025026 43 157 0.0 2.0 0.00 0.03 0.03 95 1021.5
20260503024521 43 124 0.0 3.0 0.00 0.03 0.03 95 1021.4
20260503024019 43 122 0.0 1.0 0.00 0.03 0.03 95 1021.2
20260503023515 43 154 0.0 2.0 0.00 0.03 0.03 95 1021.4
20260503023013 44 147 0.0 0.0 0.00 0.03 0.03 95 1021.2
20260503022509 44 131 2.0 2.0 0.00 0.03 0.03 95 1021.0
20260503022003 44 114 0.0 1.0 0.00 0.03 0.03 94 1021.1
20260503021500 44 246 0.0 0.0 0.00 0.03 0.03 94 1021.2
20260503020957 44 110 0.0 1.0 0.00 0.03 0.03 94 1021.1
20260503020455 44 145 0.0 2.0 0.00 0.03 0.03 93 1021.1
20260503015951 45 132 0.0 2.0 0.00 0.03 0.03 93 1020.9
20260503015448 45 135 0.0 0.0 0.00 0.03 0.03 93 1021.1
20260503014944 45 157 0.0 1.0 0.00 0.03 0.03 93 1021.1
20260503014441 46 119 0.0 2.0 0.00 0.03 0.03 93 1021.1
20260503013939 45 123 0.0 0.0 0.00 0.03 0.03 92 1021.2
20260503013436 46 165 0.0 1.0 0.00 0.03 0.03 92 1021.2
20260503012933 46 135 0.0 2.0 0.00 0.03 0.03 91 1020.9
20260503012432 46 192 0.0 2.0 0.00 0.03 0.03 90 1021.2
20260503011927 46 138 1.0 2.0 0.00 0.03 0.03 90 1021.0
20260503011424 46 326 0.0 0.0 0.00 0.03 0.03 90 1020.9
20260503010921 46 206 2.0 3.0 0.00 0.03 0.03 89 1020.9
20260503010418 46 122 0.0 2.0 0.02 0.03 0.03 90 1021.0
20260503005915 46 186 0.0 2.0 0.02 0.03 0.03 89 1021.0
20260503005413 46 199 0.0 2.0 0.00 0.03 0.03 88 1021.0
20260503004909 46 225 1.0 2.0 0.02 0.03 0.03 86 1020.7
20260503004406 47 214 2.0 3.0 0.07 0.03 0.03 86 1020.6
20260503003903 47 161 3.0 3.0 0.09 0.02 0.02 82 1020.8
20260503003400 49 168 4.0 5.0 0.07 0.02 0.02 77 1020.7
20260503002857 49 215 2.0 2.0 0.02 0.01 0.01 74 1020.8